STARLINK-35375, 66065

Orbit data source: Space-Track

STARLINK-35375, 66065 is a payload satellite owned by SpaceX/Seattle (US) in LEO that was launched on Sun, 19 Oct 2025 UTC via an FALCON 9 launch vehicle from the Air Force Eastern Test Range (AFETR). Payload-class satellites include a variety of spacecraft equipped with specific instruments for various scientific and technological missions. These include communications satellites like Starlink; space stations such as the ISS; scientific satellites like the Hubble; Earth observation satellites from companies like Planet Labs, Umbra, and HawkEye 360; GPS; miniature CubeSats for education and research; and military/defense satellites.

Loading next visibility...
Identifier
66065, 2025-235H
Orbit
LEO
Country
Flag of USUS
Related business
Manufacturer
SpaceX/Seattle
Mission
Operational Commercial Communications
Bus & Motor
STARLINK V2MO, Unknown motor
Mass
575 kg wet, ~530 kg dry
Launch date (UTC)
2025-10-19 (8 months ago)
Launch vehicle
FALCON 9
Launch site
Air Force Eastern Test Range (AFETR)
Object type
Payload
Rocket body
Debris
Shape & HBR
Box + 2 Pan, 17.7 m
Radar Cross Section
36.964 m², Large (>1 m²)

Expand to show TLE details & history
Last TLE update: 1 day ago

TLE from 1 day ago
0 STARLINK-35375
1 66065U 25235H   26170.62767230  .00013577  00000-0  46974-3 0  9995
2 66065  53.1609 132.1294 0001663 106.9406 253.1777 15.30197288 38527
Epoch: 2026-06-19T15:03Z
TLE epoch observation values (Epoch: 2026-06-19T15:03:50.886Z)
Latitude
-0.00005°
Longitude
-1.68659°
Altitude
476.453 km
Speed
7.629 km/s
True Right ascension
08h 48m 31s
True Declination
0° 00' 00"
Sunlit
Object was in daylight at epoch
Visualization orbit readout
Latitude
Unknown
Longitude
Unknown
Altitude
Unknown
Speed
Unknown
Apparent Right ascension
Unknown
Apparent Declination
Unknown
Sunlit
N/A
Visualization observer readout
Local Sidereal Time
10:17:54
Azimuth
Unknown
Elevation
Unknown
Doppler factor
Unknown
Orbital elements
Apogee altitude
476.619 km
Perigee altitude
474.34 km
Semi-major axis
6,853.616 km
Eccentricity
0.00017
Inclination
53.1609°
RAAN
132.1294°
Arg. of periapsis
106.9406°
True anomaly
253.15946°
Mean anomaly
253.1777°
Eccentric anomaly
253.16858°
Mean motion
3.82528 °/min
Orbital period
94.11 mins
BSTAR
0.00046974
Loading maneuver chart data...
Computing Atmospheric mass density...
Loading historical data...
Loading historical data...
Loading historical data...
Loading historical data...
Loading historical data...
Loading historical data...
Loading historical data...

Documentation

Showing up to 5 results
|